QPF
0.10 0.09 0.09 0.10 0.09 0.09 0.10 0.12 0.12 0.11 0.10 0.10 0.10 0.09 0.08 0.08 0.07 0.06 0.05 0.04 0.03 0.02 0.02 0.01 0.01 0.00 0.00 0.00 0.00 0.00 0.00 0.00 0.01 0.01 0.01 0.01 0.01 0.00 0.00 0.01 0.01 0.01 0.00
0.12 0.11 0.11 0.11 0.10 0.09 0.09 0.11 0.13 0.13 0.12 0.12 0.11 0.11 0.10 0.09 0.08 0.06 0.04 0.03 0.02 0.02 0.02 0.01 0.01 0.01 0.00 0.00 0.00 0.00 0.00 0.00 0.00 0.01 0.01 0.01 0.01 0.00 0.00 0.00 0.00 0.00 0.00
0.09 0.08 0.08 0.08 0.08 0.08 0.08 0.09 0.10 0.12 0.11 0.10 0.10 0.11 0.11 0.10 0.09 0.07 0.04 0.03 0.02 0.02 0.01 0.01 0.01 0.01 0.01 0.01 0.01 0.01 0.01 0.00 0.01 0.01 0.01 0.01 0.00 0.01 0.01 0.01 0.00 0.00 0.00
0.06 0.06 0.05 0.05 0.05 0.06 0.06 0.06 0.07 0.07 0.07 0.06 0.06 0.06 0.06 0.06 0.05 0.04 0.03 0.02 0.02 0.01 0.01 0.01 0.01 0.01 0.01 0.01 0.01 0.01 0.01 0.01 0.01 0.01 0.01 0.01 0.02 0.01 0.02 0.02 0.01 0.01 0.01
0.07 0.06 0.04 0.04 0.05 0.05 0.05 0.05 0.04 0.04 0.04 0.04 0.05 0.04 0.04 0.03 0.02 0.01 0.01 0.01 0.01 0.01 0.01 0.01 0.00 0.00 0.01 0.01 0.01 0.01 0.01 0.01 0.02 0.02 0.03 0.03 0.04 0.04 0.03 0.01 0.01 0.02 0.02
0.07 0.07 0.06 0.06 0.05 0.05 0.05 0.04 0.04 0.03 0.03 0.03 0.03 0.03 0.02 0.01 0.01 0.01 0.01 0.01 0.02 0.02 0.02 0.01 0.00 0.00 0.00 0.01 0.00 0.00 0.00 0.01 0.01 0.02 0.04 0.05 0.06 0.05 0.03 0.02 0.02 0.02 0.03
0.08 0.07 0.07 0.06 0.06 0.05 0.04 0.04 0.03 0.03 0.02 0.02 0.02 0.01 0.01 0.00 0.00 0.00 0.00 0.01 0.03 0.03 0.03 0.02 0.01 0.01 0.00 0.01 0.00 0.01 0.01 0.00 0.00 0.00 0.03 0.04 0.05 0.04 0.02 0.02 0.03 0.03 0.04
0.08 0.08 0.07 0.06 0.06 0.05 0.05 0.05 0.04 0.03 0.03 0.03 0.03 0.02 0.01 0.00 0.00 0.00 0.00 0.02 0.03 0.02 0.02 0.02 0.03 0.03 0.01 0.00 0.01 0.03 0.04 0.03 0.01 0.01 0.02 0.03 0.02 0.01 0.01 0.01 0.02 0.05 0.08
0.07 0.07 0.06 0.05 0.05 0.05 0.05 0.05 0.05 0.04 0.03 0.03 0.03 0.03 0.02 0.00 0.00 0.00 0.00 0.02 0.03 0.02 0.01 0.01 0.02 0.02 0.00 0.00 0.02 0.05 0.06 0.05 0.01 0.00 0.00 0.00 0.00 0.00 0.00 0.00 0.03 0.06 0.07
0.05 0.04 0.04 0.03 0.03 0.03 0.04 0.04 0.04 0.04 0.03 0.02 0.02 0.03 0.02 0.01 0.00 0.00 0.01 0.02 0.04 0.04 0.04 0.03 0.00 0.00 0.00 0.00 0.02 0.04 0.03 0.03 0.02 0.02 0.02 0.02 0.02 0.01 0.01 0.01 0.05 0.06 0.06
0.03 0.03 0.02 0.02 0.02 0.03 0.04 0.04 0.04 0.04 0.03 0.03 0.03 0.04 0.02 0.01 0.00 0.00 0.00 0.01 0.03 0.05 0.05 0.04 0.01 0.00 0.00 0.00 0.00 0.01 0.00 0.00 0.01 0.03 0.03 0.03 0.03 0.04 0.04 0.04 0.06 0.06 0.05
0.02 0.02 0.02 0.01 0.01 0.02 0.04 0.04 0.04 0.04 0.04 0.05 0.05 0.05 0.04 0.01 0.00 0.00 0.00 0.00 0.00 0.04 0.06 0.03 0.01 0.00 0.00 0.00 0.00 0.00 0.00 0.00 0.01 0.02 0.02 0.03 0.03 0.03 0.03 0.03 0.04 0.04 0.04
0.03 0.03 0.03 0.02 0.02 0.02 0.04 0.04 0.04 0.04 0.04 0.04 0.05 0.05 0.05 0.03 0.01 0.00 0.00 0.00 0.00 0.02 0.02 0.00 0.00 0.00 0.00 0.01 0.00 0.00 0.00 0.01 0.01 0.01 0.02 0.02 0.02 0.01 0.01 0.01 0.02 0.03 0.03
0.04 0.04 0.03 0.02 0.02 0.03 0.03 0.02 0.02 0.02 0.03 0.03 0.03 0.04 0.05 0.03 0.01 0.00 0.01 0.01 0.01 0.01 0.02 0.01 0.00 0.00 0.00 0.00 0.00 0.01 0.01 0.01 0.01 0.01 0.01 0.01 0.02 0.01 0.01 0.01 0.02 0.02 0.03
0.04 0.04 0.03 0.02 0.02 0.03 0.02 0.01 0.00 0.00 0.01 0.02 0.02 0.02 0.04 0.03 0.00 0.00 0.00 0.01 0.01 0.01 0.02 0.02 0.02 0.01 0.01 0.01 0.01 0.01 0.01 0.01 0.01 0.01 0.01 0.01 0.01 0.01 0.01 0.01 0.01 0.01 0.01
0.05 0.04 0.02 0.02 0.02 0.02 0.01 0.00 0.00 0.00 0.00 0.00 0.00 0.00 0.00 0.00 0.00 0.00 0.00 0.00 0.00 0.00 0.01 0.02 0.02 0.01 0.01 0.00 0.00 0.00 0.00 0.01 0.01 0.01 0.01 0.01 0.01 0.00 0.00 0.01 0.01 0.01 0.01
0.04 0.02 0.01 0.01 0.01 0.01 0.02 0.02 0.01 0.00 0.00 0.00 0.00 0.00 0.00 0.00 0.00 0.00 0.00 0.00 0.00 0.00 0.01 0.01 0.01 0.00 0.00 0.00 0.00 0.00 0.00 0.00 0.00 0.00 0.01 0.00 0.00 0.00 0.00 0.00 0.00 0.00 0.00
0.01 0.01 0.00 0.01 0.01 0.00 0.01 0.01 0.02 0.03 0.03 0.02 0.00 0.00 0.00 0.00 0.00 0.00 0.00 0.00 0.01 0.01 0.01 0.00 0.00 0.00 0.00 0.00 0.00 0.00 0.00 0.00 0.00 0.00 0.00 0.00 0.00 0.00 0.00 0.00 0.00 0.00 0.00
0.01 0.01 0.00 0.00 0.00 0.00 0.00 0.00 0.00 0.01 0.02 0.03 0.02 0.01 0.00 0.00 0.00 0.00 0.00 0.01 0.01 0.01 0.00 0.00 0.00 0.00 0.00 0.00 0.00 0.00 0.00 0.00 0.00 0.00 0.00 0.00 0.00 0.00 0.00 0.00 0.00 0.00 0.00
0.01 0.00 0.00 0.00 0.00 0.00 0.00 0.00 0.00 0.01 0.01 0.02 0.03 0.03 0.01 0.01 0.02 0.02 0.01 0.01 0.01 0.00 0.00 0.00 0.00 0.00 0.00 0.00 0.00 0.00 0.00 0.00 0.00 0.00 0.00 0.00 0.00 0.00 0.00 0.00 0.00 0.00 0.00
0.00 0.00 0.00 0.00 0.00 0.00 0.00 0.00 0.00 0.00 0.01 0.01 0.01 0.00 0.01 0.02 0.03 0.02 0.01 0.00 0.00 0.00 0.00 0.00 0.00 0.00 0.00 0.00 0.00 0.00 0.00 0.00 0.00 0.00 0.00 0.00 0.00 0.00 0.00 0.00 0.00 0.00 0.00
0.00 0.00 0.00 0.00 0.00 0.00 0.00 0.00 0.00 0.00 0.00 0.00 0.00 0.00 0.00 0.01 0.01 0.00 0.00 0.00 0.00 0.00 0.00 0.00 0.00 0.00 0.00 0.00 0.00 0.00 0.00 0.00 0.00 0.00 0.00 0.00 0.00 0.00 0.00 0.00 0.00 0.00 0.00
0.00 0.00 0.00 0.00 0.00 0.00 0.00 0.00 0.00 0.00 0.00 0.00 0.00 0.00 0.00 0.01 0.01 0.00 0.00 0.00 0.00 0.00 0.00 0.00 0.00 0.00 0.00 0.00 0.00 0.00 0.00 0.00 0.00 0.00 0.00 0.00 0.00 0.00 0.00 0.00 0.00 0.00 0.00
0.00 0.00 0.00 0.00 0.00 0.00 0.00 0.00 0.00 0.00 0.00 0.00 0.00 0.00 0.00 0.01 0.00 0.00 0.00 0.00 0.00 0.00 0.00 0.00 0.00 0.00 0.00 0.00 0.00 0.00 0.00 0.00 0.00 0.00 0.00 0.00 0.00 0.00 0.00 0.00 0.00 0.00 0.00
0.00 0.00 0.00 0.00 0.00 0.00 0.00 0.00 0.00 0.00 0.00 0.00 0.00 0.00 0.00 0.00 0.00 0.00 0.00 0.00 0.00 0.00 0.00 0.00 0.00 0.00 0.00 0.00 0.00 0.00 0.00 0.00 0.00 0.00 0.00 0.00 0.00 0.00 0.00 0.00 0.00 0.00 0.00
0.00 0.00 0.00 0.00 0.00 0.00 0.00 0.00 0.00 0.00 0.00 0.00 0.00 0.00 0.00 0.00 0.00 0.00 0.00 0.00 0.00 0.00 0.00 0.00 0.00 0.00 0.00 0.00 0.00 0.00 0.00 0.00 0.00 0.00 0.00 0.00 0.00 0.00 0.00 0.00 0.00 0.00 0.00
MSLP
1017.94 1018.05 1018.18 1018.34 1018.52 1018.72 1018.94 1019.16 1019.38 1019.58 1019.76 1019.90 1020.01 1020.08 1020.12 1020.15 1020.18 1020.22 1020.28 1020.36 1020.45 1020.54 1020.63 1020.69 1020.72 1020.74 1020.74 1020.75 1020.79 1020.87 1021.01 1021.19 1021.41 1021.64 1021.86 1022.06 1022.20 1022.31 1022.37 1022.42 1022.48 1022.56 1022.68
1019.12 1019.19 1019.25 1019.30 1019.36 1019.43 1019.52 1019.63 1019.75 1019.88 1020.00 1020.10 1020.19 1020.26 1020.32 1020.37 1020.43 1020.52 1020.62 1020.75 1020.88 1021.01 1021.11 1021.19 1021.22 1021.22 1021.21 1021.19 1021.20 1021.25 1021.34 1021.49 1021.67 1021.87 1022.05 1022.20 1022.30 1022.34 1022.35 1022.33 1022.32 1022.33 1022.38
1019.97 1020.05 1020.06 1020.05 1020.02 1020.00 1020.00 1020.03 1020.09 1020.16 1020.25 1020.34 1020.42 1020.49 1020.55 1020.62 1020.71 1020.82 1020.95 1021.10 1021.27 1021.43 1021.57 1021.67 1021.73 1021.75 1021.75 1021.74 1021.74 1021.78 1021.86 1021.98 1022.13 1022.28 1022.42 1022.52 1022.56 1022.55 1022.49 1022.40 1022.31 1022.24 1022.22
1020.48 1020.58 1020.59 1020.56 1020.49 1020.43 1020.39 1020.38 1020.41 1020.48 1020.56 1020.65 1020.74 1020.81 1020.88 1020.95 1021.04 1021.14 1021.28 1021.44 1021.62 1021.80 1021.96 1022.09 1022.19 1022.25 1022.28 1022.30 1022.32 1022.37 1022.44 1022.54 1022.66 1022.78 1022.88 1022.93 1022.92 1022.86 1022.74 1022.59 1022.43 1022.29 1022.20
1020.69 1020.82 1020.86 1020.84 1020.78 1020.71 1020.68 1020.69 1020.73 1020.82 1020.93 1021.04 1021.14 1021.23 1021.30 1021.36 1021.43 1021.51 1021.62 1021.76 1021.92 1022.10 1022.28 1022.44 1022.58 1022.68 1022.75 1022.81 1022.86 1022.92 1022.99 1023.08 1023.17 1023.26 1023.31 1023.32 1023.28 1023.17 1023.02 1022.82 1022.62 1022.43 1022.27
1020.70 1020.87 1020.94 1020.94 1020.91 1020.88 1020.88 1020.93 1021.02 1021.16 1021.31 1021.46 1021.59 1021.70 1021.76 1021.81 1021.84 1021.89 1021.96 1022.06 1022.19 1022.35 1022.53 1022.71 1022.87 1023.01 1023.12 1023.21 1023.29 1023.36 1023.42 1023.49 1023.56 1023.61 1023.62 1023.60 1023.53 1023.40 1023.23 1023.02 1022.80 1022.58 1022.38
1020.64 1020.82 1020.91 1020.94 1020.94 1020.95 1021.00 1021.10 1021.26 1021.45 1021.66 1021.86 1022.02 1022.14 1022.22 1022.24 1022.25 1022.26 1022.28 1022.33 1022.43 1022.57 1022.73 1022.91 1023.08 1023.24 1023.38 1023.49 1023.58 1023.64 1023.70 1023.74 1023.76 1023.77 1023.76 1023.70 1023.61 1023.48 1023.30 1023.10 1022.88 1022.66 1022.45
1020.60 1020.76 1020.86 1020.90 1020.92 1020.97 1021.06 1021.21 1021.42 1021.66 1021.92 1022.17 1022.37 1022.52 1022.60 1022.62 1022.61 1022.59 1022.57 1022.59 1022.66 1022.76 1022.91 1023.08 1023.26 1023.42 1023.56 1023.67 1023.75 1023.79 1023.81 1023.81 1023.79 1023.75 1023.70 1023.62 1023.51 1023.38 1023.22 1023.03 1022.83 1022.63 1022.42
1020.65 1020.78 1020.85 1020.88 1020.91 1020.97 1021.08 1021.26 1021.51 1021.79 1022.10 1022.38 1022.62 1022.79 1022.90 1022.93 1022.92 1022.88 1022.85 1022.85 1022.89 1022.98 1023.11 1023.26 1023.43 1023.58 1023.70 1023.79 1023.84 1023.84 1023.81 1023.75 1023.68 1023.59 1023.49 1023.38 1023.26 1023.13 1022.98 1022.82 1022.65 1022.47 1022.28
1020.82 1020.90 1020.93 1020.94 1020.95 1021.00 1021.12 1021.31 1021.57 1021.88 1022.20 1022.52 1022.79 1022.99 1023.12 1023.18 1023.19 1023.16 1023.14 1023.13 1023.16 1023.24 1023.35 1023.48 1023.62 1023.75 1023.84 1023.89 1023.89 1023.84 1023.75 1023.64 1023.50 1023.36 1023.22 1023.08 1022.94 1022.81 1022.67 1022.53 1022.38 1022.22 1022.05
1021.08 1021.11 1021.11 1021.08 1021.07 1021.11 1021.21 1021.39 1021.65 1021.96 1022.30 1022.63 1022.92 1023.16 1023.32 1023.41 1023.45 1023.45 1023.44 1023.45 1023.48 1023.54 1023.63 1023.74 1023.85 1023.93 1023.98 1023.98 1023.93 1023.83 1023.68 1023.51 1023.32 1023.13 1022.95 1022.78 1022.63 1022.49 1022.36 1022.22 1022.09 1021.94 1021.77
1021.39 1021.40 1021.36 1021.31 1021.28 1021.30 1021.39 1021.56 1021.80 1022.10 1022.44 1022.78 1023.09 1023.35 1023.54 1023.67 1023.74 1023.77 1023.78 1023.79 1023.82 1023.87 1023.93 1024.00 1024.07 1024.11 1024.11 1024.06 1023.96 1023.81 1023.62 1023.41 1023.18 1022.96 1022.74 1022.55 1022.38 1022.23 1022.09 1021.96 1021.82 1021.67 1021.50
1021.72 1021.71 1021.67 1021.61 1021.57 1021.58 1021.66 1021.82 1022.05 1022.34 1022.67 1023.01 1023.32 1023.60 1023.81 1023.96 1024.06 1024.11 1024.13 1024.14 1024.16 1024.17 1024.20 1024.23 1024.24 1024.23 1024.18 1024.09 1023.95 1023.77 1023.56 1023.33 1023.08 1022.85 1022.62 1022.42 1022.24 1022.07 1021.92 1021.77 1021.61 1021.44 1021.26
1022.01 1022.01 1021.98 1021.93 1021.91 1021.92 1022.00 1022.15 1022.38 1022.66 1022.98 1023.31 1023.63 1023.91 1024.13 1024.29 1024.39 1024.45 1024.46 1024.45 1024.43 1024.41 1024.38 1024.35 1024.31 1024.25 1024.16 1024.03 1023.88 1023.69 1023.48 1023.26 1023.02 1022.80 1022.58 1022.38 1022.18 1022.00 1021.83 1021.66 1021.48 1021.28 1021.08
1022.23 1022.25 1022.25 1022.23 1022.23 1022.27 1022.36 1022.52 1022.74 1023.02 1023.34 1023.66 1023.97 1024.24 1024.46 1024.62 1024.71 1024.74 1024.73 1024.68 1024.60 1024.52 1024.43 1024.34 1024.24 1024.13 1024.02 1023.88 1023.73 1023.56 1023.37 1023.18 1022.98 1022.78 1022.59 1022.39 1022.20 1022.01 1021.81 1021.61 1021.39 1021.17 1020.93
1022.36 1022.41 1022.43 1022.45 1022.48 1022.55 1022.66 1022.84 1023.07 1023.35 1023.66 1023.98 1024.28 1024.54 1024.74 1024.87 1024.94 1024.93 1024.87 1024.77 1024.64 1024.49 1024.34 1024.19 1024.04 1023.90 1023.77 1023.64 1023.51 1023.38 1023.25 1023.11 1022.96 1022.80 1022.63 1022.45 1022.26 1022.05 1021.82 1021.58 1021.33 1021.07 1020.80
1022.39 1022.45 1022.50 1022.54 1022.60 1022.70 1022.84 1023.04 1023.29 1023.58 1023.89 1024.20 1024.49 1024.73 1024.91 1025.02 1025.04 1025.00 1024.89 1024.73 1024.54 1024.34 1024.13 1023.93 1023.76 1023.61 1023.48 1023.38 1023.29 1023.21 1023.14 1023.06 1022.96 1022.85 1022.70 1022.53 1022.33 1022.10 1021.84 1021.56 1021.27 1020.97 1020.67
1022.31 1022.37 1022.42 1022.48 1022.56 1022.68 1022.85 1023.07 1023.34 1023.63 1023.95 1024.26 1024.54 1024.77 1024.93 1025.01 1025.01 1024.93 1024.78 1024.58 1024.35 1024.10 1023.86 1023.65 1023.47 1023.32 1023.22 1023.16 1023.13 1023.11 1023.10 1023.08 1023.03 1022.94 1022.81 1022.64 1022.41 1022.15 1021.85 1021.52 1021.18 1020.84 1020.51
1022.13 1022.17 1022.21 1022.26 1022.35 1022.49 1022.67 1022.91 1023.19 1023.50 1023.82 1024.13 1024.41 1024.63 1024.78 1024.85 1024.84 1024.74 1024.57 1024.35 1024.10 1023.85 1023.61 1023.40 1023.24 1023.14 1023.08 1023.07 1023.10 1023.14 1023.18 1023.21 1023.19 1023.11 1022.98 1022.78 1022.52 1022.21 1021.85 1021.47 1021.09 1020.70 1020.34
1021.85 1021.85 1021.86 1021.91 1021.99 1022.14 1022.33 1022.58 1022.87 1023.19 1023.52 1023.84 1024.13 1024.35 1024.50 1024.58 1024.56 1024.47 1024.31 1024.10 1023.87 1023.64 1023.43 1023.26 1023.15 1023.09 1023.10 1023.15 1023.24 1023.34 1023.42 1023.46 1023.45 1023.38 1023.21 1022.97 1022.66 1022.29 1021.87 1021.43 1020.99 1020.57 1020.18
1021.50 1021.45 1021.44 1021.46 1021.54 1021.68 1021.87 1022.13 1022.43 1022.76 1023.10 1023.43 1023.73 1023.96 1024.13 1024.22 1024.22 1024.16 1024.03 1023.86 1023.67 1023.49 1023.34 1023.23 1023.19 1023.21 1023.28 1023.40 1023.54 1023.67 1023.78 1023.84 1023.82 1023.71 1023.50 1023.21 1022.83 1022.39 1021.91 1021.41 1020.92 1020.45 1020.03
1021.09 1021.01 1020.97 1020.97 1021.04 1021.18 1021.37 1021.63 1021.94 1022.28 1022.63 1022.97 1023.27 1023.52 1023.71 1023.82 1023.86 1023.83 1023.75 1023.64 1023.51 1023.40 1023.33 1023.30 1023.34 1023.43 1023.57 1023.75 1023.93 1024.10 1024.22 1024.27 1024.22 1024.07 1023.82 1023.46 1023.01 1022.51 1021.96 1021.41 1020.87 1020.37 1019.93
1020.68 1020.57 1020.51 1020.51 1020.57 1020.70 1020.90 1021.16 1021.47 1021.81 1022.16 1022.51 1022.82 1023.08 1023.29 1023.42 1023.50 1023.51 1023.48 1023.43 1023.38 1023.35 1023.35 1023.41 1023.52 1023.69 1023.89 1024.12 1024.34 1024.52 1024.64 1024.67 1024.60 1024.41 1024.10 1023.68 1023.18 1022.62 1022.02 1021.43 1020.86 1020.33 1019.87
1020.29 1020.18 1020.12 1020.11 1020.17 1020.30 1020.50 1020.77 1021.07 1021.41 1021.75 1022.09 1022.40 1022.67 1022.88 1023.04 1023.14 1023.19 1023.21 1023.21 1023.22 1023.26 1023.34 1023.47 1023.66 1023.88 1024.14 1024.40 1024.65 1024.84 1024.96 1024.97 1024.87 1024.65 1024.30 1023.84 1023.30 1022.70 1022.07 1021.45 1020.86 1020.33 1019.87
1019.96 1019.86 1019.80 1019.80 1019.87 1020.01 1020.21 1020.47 1020.77 1021.09 1021.42 1021.74 1022.04 1022.30 1022.50 1022.66 1022.77 1022.85 1022.90 1022.95 1023.02 1023.11 1023.25 1023.44 1023.67 1023.95 1024.24 1024.54 1024.80 1025.00 1025.11 1025.12 1025.00 1024.75 1024.38 1023.90 1023.34 1022.73 1022.09 1021.47 1020.88 1020.36 1019.90
1019.70 1019.61 1019.57 1019.59 1019.67 1019.81 1020.01 1020.26 1020.55 1020.85 1021.16 1021.46 1021.73 1021.96 1022.15 1022.30 1022.41 1022.49 1022.56 1022.64 1022.73 1022.86 1023.04 1023.27 1023.54 1023.85 1024.18 1024.49 1024.76 1024.97 1025.08 1025.09 1024.97 1024.72 1024.35 1023.87 1023.32 1022.71 1022.09 1021.48 1020.92 1020.41 1019.98
Thickness
5605 5605 5605 5603 5603 5603 5601 5600 5599 5599 5599 5599 5599 5599 5599 5600 5601 5602 5602 5602 5601 5599 5599 5598 5597 5597 5597 5597 5595 5593 5590 5587 5580 5578 5576 5570 5566 5563 5559 5557 5555 5553 5549
5594 5593 5592 5590 5590 5590 5588 5588 5588 5588 5588 5588 5588 5588 5588 5588 5589 5590 5591 5590 5589 5588 5587 5587 5586 5586 5584 5583 5582 5580 5577 5575 5570 5566 5564 5561 5558 5555 5551 5549 5548 5546 5542
5583 5582 5580 5579 5578 5578 5577 5577 5577 5577 5577 5577 5577 5577 5577 5576 5577 5578 5579 5578 5577 5577 5576 5575 5574 5573 5571 5570 5569 5568 5566 5564 5560 5557 5554 5552 5550 5547 5544 5542 5540 5538 5536
5572 5570 5569 5568 5567 5567 5567 5567 5567 5567 5566 5566 5566 5566 5566 5565 5565 5566 5567 5567 5566 5566 5565 5564 5562 5560 5558 5557 5557 5555 5553 5551 5549 5546 5544 5542 5539 5538 5535 5531 5530 5529 5527
5561 5559 5558 5558 5557 5557 5557 5557 5557 5557 5557 5556 5555 5555 5555 5553 5552 5552 5556 5557 5556 5555 5554 5553 5551 5548 5546 5545 5544 5541 5540 5538 5537 5535 5532 5530 5527 5525 5523 5522 5520 5519 5519
5551 5550 5549 5549 5549 5548 5547 5547 5547 5547 5547 5547 5546 5545 5544 5541 5540 5542 5543 5545 5546 5545 5544 5543 5540 5539 5536 5534 5533 5530 5528 5527 5524 5523 5521 5518 5516 5515 5514 5513 5512 5510 5508
5544 5543 5542 5542 5541 5540 5540 5539 5539 5539 5538 5537 5536 5534 5532 5530 5531 5532 5533 5535 5536 5536 5535 5534 5534 5529 5527 5525 5524 5522 5520 5518 5515 5513 5511 5509 5509 5508 5506 5505 5504 5503 5502
5537 5536 5535 5535 5534 5533 5533 5532 5531 5531 5530 5529 5528 5526 5524 5522 5522 5522 5523 5527 5528 5528 5527 5525 5521 5518 5515 5514 5515 5515 5514 5512 5510 5506 5506 5505 5504 5502 5500 5499 5499 5499 5500
5531 5530 5529 5528 5527 5526 5525 5524 5523 5523 5522 5522 5521 5519 5516 5514 5513 5514 5515 5519 5519 5519 5517 5514 5512 5508 5505 5505 5507 5506 5506 5504 5503 5502 5501 5500 5500 5498 5495 5493 5494 5493 5493
5525 5525 5524 5523 5521 5520 5519 5518 5518 5518 5518 5517 5515 5513 5510 5507 5506 5506 5507 5511 5511 5510 5507 5504 5501 5499 5498 5497 5497 5497 5496 5495 5496 5497 5497 5498 5497 5496 5494 5490 5490 5489 5489
5521 5520 5519 5518 5516 5515 5514 5513 5513 5513 5512 5511 5509 5507 5504 5502 5500 5500 5500 5501 5501 5501 5500 5497 5493 5492 5491 5490 5489 5489 5488 5487 5489 5492 5494 5495 5495 5493 5492 5490 5489 5488 5486
5516 5515 5514 5514 5513 5511 5509 5509 5509 5508 5506 5505 5503 5501 5498 5497 5495 5494 5493 5493 5492 5493 5492 5490 5488 5486 5485 5485 5485 5485 5485 5485 5487 5489 5490 5490 5489 5489 5489 5488 5488 5488 5487
5512 5510 5510 5509 5508 5506 5506 5505 5505 5504 5503 5501 5499 5496 5494 5492 5489 5488 5487 5487 5486 5486 5485 5484 5483 5482 5481 5482 5482 5481 5481 5482 5483 5484 5484 5485 5485 5486 5486 5486 5487 5488 5488
5507 5506 5505 5504 5504 5502 5502 5502 5500 5499 5498 5497 5495 5492 5490 5487 5485 5483 5483 5483 5482 5481 5481 5481 5480 5480 5479 5478 5479 5479 5479 5480 5479 5479 5480 5481 5482 5483 5483 5484 5484 5485 5486
5505 5503 5503 5501 5500 5499 5495 5492 5492 5487 5488 5489 5488 5488 5485 5481 5475 5475 5476 5476 5475 5474 5474 5478 5479 5480 5479 5479 5479 5479 5478 5478 5476 5476 5476 5476 5478 5479 5480 5482 5483 5484 5484
5503 5502 5501 5500 5499 5497 5494 5489 5484 5483 5481 5481 5480 5479 5477 5475 5473 5473 5473 5472 5472 5471 5472 5476 5477 5477 5476 5475 5475 5475 5475 5473 5472 5472 5473 5474 5475 5476 5477 5479 5481 5482 5483
5502 5502 5501 5499 5498 5497 5495 5491 5487 5481 5479 5478 5477 5476 5475 5473 5472 5472 5471 5471 5471 5470 5471 5475 5475 5474 5473 5472 5471 5470 5470 5469 5469 5470 5471 5471 5473 5474 5475 5477 5479 5481 5482
5503 5501 5500 5500 5499 5498 5496 5494 5492 5488 5484 5481 5477 5475 5474 5473 5472 5471 5470 5469 5473 5475 5475 5475 5474 5472 5471 5469 5468 5467 5466 5466 5467 5467 5469 5470 5471 5473 5474 5477 5479 5481 5482
5505 5504 5502 5502 5501 5500 5499 5497 5495 5492 5489 5486 5482 5477 5475 5473 5472 5472 5470 5471 5476 5477 5476 5474 5472 5471 5469 5467 5466 5466 5465 5465 5466 5466 5467 5469 5470 5472 5474 5477 5479 5482 5484
5507 5503 5503 5504 5504 5503 5501 5500 5498 5495 5492 5490 5487 5484 5480 5478 5477 5478 5476 5477 5477 5476 5474 5473 5472 5470 5468 5467 5466 5465 5464 5464 5465 5466 5467 5468 5470 5472 5475 5477 5480 5483 5486
5513 5510 5506 5507 5507 5506 5505 5503 5501 5499 5496 5494 5491 5487 5484 5484 5484 5483 5482 5480 5478 5476 5474 5472 5472 5471 5468 5466 5465 5464 5463 5463 5463 5463 5464 5466 5469 5472 5475 5479 5482 5486 5488
5519 5517 5515 5514 5512 5510 5509 5507 5505 5502 5501 5498 5494 5491 5487 5486 5487 5486 5484 5482 5480 5477 5475 5472 5472 5470 5466 5465 5464 5463 5463 5461 5460 5460 5462 5465 5469 5473 5477 5480 5484 5487 5489
5525 5524 5522 5520 5518 5512 5512 5512 5510 5507 5505 5503 5501 5497 5493 5492 5491 5488 5486 5484 5481 5479 5477 5474 5472 5469 5466 5465 5464 5462 5460 5458 5457 5458 5461 5464 5469 5473 5478 5482 5485 5488 5491
5531 5531 5529 5527 5524 5522 5520 5517 5515 5513 5510 5507 5505 5502 5499 5496 5494 5491 5489 5487 5484 5482 5479 5477 5474 5472 5469 5467 5465 5462 5460 5459 5459 5460 5461 5464 5468 5475 5479 5483 5487 5490 5492
5538 5538 5537 5535 5532 5529 5526 5523 5521 5518 5515 5512 5509 5507 5505 5502 5499 5497 5494 5491 5488 5486 5483 5480 5477 5475 5472 5469 5466 5464 5463 5462 5462 5463 5464 5467 5471 5476 5481 5485 5488 5491 5492
5546 5545 5544 5542 5539 5535 5532 5529 5526 5523 5520 5518 5515 5512 5509 5507 5505 5502 5499 5495 5493 5491 5487 5485 5481 5478 5475 5472 5469 5467 5467 5467 5467 5467 5468 5470 5474 5479 5482 5485 5488 5491 5492